When you browse on this site, cookies collect data to enhance your experience and personalize the content and advertising you see.
Visit our Privacy Policy to learn more. By continuing to use the site, you agree to this use of cookies and data.
  • In United Kingdom
  • List of Countries
  • For 7 days
  • Water Temperature
  • Weather Map
  • Weather Widgets
  • user-avatar
    Login

    Hourly Weather Piraeus

    Today, 26 August, Monday

    Time Temperature Precipitation Wind Pressure Humidity
    00:00 +28°C° 0 mm 4 mps 757 mmHg 47%
    01:00 +28°C° 0 mm 4 mps 757 mmHg 47%
    02:00 +28°C° 0 mm 4 mps 757 mmHg 47%
    03:00 +27°C° 0 mm 5 mps 757 mmHg 48%
    04:00 +27°C° 0 mm 5 mps 757 mmHg 50%
    05:00 +27°C° 0 mm 5 mps 757 mmHg 52%
    06:00 +28°C° 0 mm 5 mps 757 mmHg 53%
    07:00 +28°C° 0 mm 5 mps 757 mmHg 54%
    08:00 +29°C° 0 mm 5 mps 757 mmHg 55%
    09:00 +32°C° 0 mm 6 mps 757 mmHg 51%
    10:00 +33°C° 0 mm 7 mps 758 mmHg 48%
    11:00 +34°C° 0 mm 7 mps 758 mmHg 44%
    12:00 +35°C° 0 mm 7 mps 758 mmHg 43%
    13:00 +35°C° 0 mm 6 mps 758 mmHg 41%
    14:00 +36°C° 0 mm 6 mps 757 mmHg 40%
    15:00 +36°C° 0 mm 6 mps 757 mmHg 40%
    16:00 +35°C° 0 mm 6 mps 757 mmHg 40%
    17:00 +35°C° 0 mm 6 mps 757 mmHg 40%
    18:00 +34°C° 0 mm 5 mps 757 mmHg 42%
    19:00 +33°C° 0 mm 5 mps 757 mmHg 44%
    20:00 +32°C° 0 mm 4 mps 757 mmHg 46%
    21:00 +30°C° 0 mm 5 mps 757 mmHg 48%
    22:00 +29°C° 0 mm 5 mps 757 mmHg 50%
    23:00 +29°C° 0 mm 5 mps 758 mmHg 52%

    Tomorrow, 27 August, Tuesday

    Time Temperature Precipitation Wind Pressure Humidity
    00:00 +28°C° 0 mm 5 mps 758 mmHg 55%
    01:00 +28°C° 0 mm 5 mps 758 mmHg 57%
    02:00 +27°C° 0 mm 5 mps 758 mmHg 59%
    03:00 +27°C° 0 mm 5 mps 758 mmHg 63%
    04:00 +26°C° 0 mm 5 mps 758 mmHg 66%
    05:00 +26°C° 0 mm 5 mps 757 mmHg 70%
    06:00 +27°C° 0 mm 6 mps 758 mmHg 66%
    07:00 +28°C° 0 mm 6 mps 758 mmHg 63%
    08:00 +28°C° 0 mm 7 mps 758 mmHg 59%
    09:00 +30°C° 0 mm 7 mps 758 mmHg 53%
    10:00 +32°C° 0 mm 8 mps 758 mmHg 46%
    11:00 +34°C° 0 mm 9 mps 759 mmHg 40%
    12:00 +34°C° 0 mm 9 mps 758 mmHg 39%
    13:00 +34°C° 0 mm 9 mps 758 mmHg 37%
    14:00 +34°C° 0 mm 9 mps 758 mmHg 36%
    15:00 +34°C° 0 mm 9 mps 758 mmHg 36%
    16:00 +34°C° 0 mm 8 mps 758 mmHg 36%
    17:00 +34°C° 0 mm 8 mps 757 mmHg 37%
    18:00 +32°C° 0 mm 7 mps 757 mmHg 40%
    19:00 +30°C° 0 mm 6 mps 757 mmHg 44%
    20:00 +29°C° 0 mm 5 mps 758 mmHg 47%
    21:00 +28°C° 0 mm 5 mps 758 mmHg 48%
    22:00 +28°C° 0 mm 5 mps 758 mmHg 48%
    23:00 +28°C° 0 mm 5 mps 758 mmHg 49%

    Day after tomorrow, 28 August, Wednesday

    Time Temperature Precipitation Wind Pressure Humidity
    00:00 +27°C° 0 mm 5 mps 758 mmHg 52%
    01:00 +27°C° 0 mm 5 mps 758 mmHg 55%
    02:00 +27°C° 0 mm 6 mps 758 mmHg 58%
    03:00 +26°C° 0 mm 6 mps 757 mmHg 61%
    04:00 +26°C° 0 mm 6 mps 757 mmHg 64%
    05:00 +24°C° 0 mm 6 mps 757 mmHg 68%
    06:00 +26°C° 0 mm 7 mps 757 mmHg 64%
    07:00 +27°C° 0 mm 8 mps 757 mmHg 61%
    08:00 +28°C° 0 mm 9 mps 757 mmHg 58%
    09:00 +29°C° 0 mm 10 mps 758 mmHg 53%
    10:00 +31°C° 0 mm 10 mps 758 mmHg 47%
    11:00 +32°C° 0 mm 11 mps 758 mmHg 42%
    12:00 +32°C° 0 mm 11 mps 758 mmHg 40%
    13:00 +33°C° 0 mm 10 mps 757 mmHg 38%
    14:00 +33°C° 0 mm 10 mps 757 mmHg 36%
    15:00 +33°C° 0 mm 10 mps 757 mmHg 36%
    16:00 +33°C° 0 mm 9 mps 757 mmHg 35%
    17:00 +33°C° 0 mm 9 mps 757 mmHg 34%
    18:00 +30°C° 0 mm 7 mps 757 mmHg 36%
    19:00 +29°C° 0 mm 6 mps 757 mmHg 38%
    20:00 +28°C° 0 mm 5 mps 757 mmHg 40%
    21:00 +27°C° 0 mm 5 mps 757 mmHg 41%
    22:00 +27°C° 0 mm 5 mps 757 mmHg 41%
    23:00 +26°C° 0 mm 5 mps 757 mmHg 42%

    29 August, Thursday

    Time Temperature Precipitation Wind Pressure Humidity
    00:00 +26°C° 0 mm 5 mps 757 mmHg 44%
    01:00 +26°C° 0 mm 5 mps 757 mmHg 47%
    02:00 +25°C° 0 mm 5 mps 757 mmHg 49%
    03:00 +25°C° 0 mm 5 mps 757 mmHg 54%
    04:00 +25°C° 0 mm 5 mps 757 mmHg 58%
    05:00 +23°C° 0 mm 5 mps 757 mmHg 62%
    06:00 +24°C° 0 mm 6 mps 757 mmHg 61%
    07:00 +26°C° 0 mm 6 mps 757 mmHg 60%
    08:00 +27°C° 0 mm 7 mps 757 mmHg 59%
    09:00 +28°C° 0 mm 7 mps 757 mmHg 52%
    10:00 +31°C° 0 mm 8 mps 758 mmHg 45%
    11:00 +32°C° 0 mm 8 mps 758 mmHg 39%
    12:00 +33°C° 0 mm 8 mps 758 mmHg 35%
    13:00 +33°C° 0 mm 8 mps 757 mmHg 32%
    14:00 +34°C° 0 mm 8 mps 757 mmHg 29%
    15:00 +33°C° 0 mm 8 mps 757 mmHg 29%
    16:00 +33°C° 0 mm 8 mps 757 mmHg 28%
    17:00 +33°C° 0 mm 7 mps 756 mmHg 27%
    18:00 +30°C° 0 mm 6 mps 757 mmHg 30%
    19:00 +28°C° 0 mm 5 mps 757 mmHg 33%
    20:00 +27°C° 0 mm 3 mps 757 mmHg 35%
    21:00 +26°C° 0 mm 3 mps 757 mmHg 36%
    22:00 +26°C° 0 mm 3 mps 757 mmHg 38%
    23:00 +26°C° 0 mm 3 mps 757 mmHg 39%

    30 August, Friday

    Time Temperature Precipitation Wind Pressure Humidity
    00:00 +25°C° 0 mm 4 mps 757 mmHg 40%
    01:00 +25°C° 0 mm 4 mps 757 mmHg 41%
    02:00 +25°C° 0 mm 4 mps 757 mmHg 42%
    03:00 +23°C° 0 mm 5 mps 757 mmHg 47%
    04:00 +23°C° 0 mm 5 mps 757 mmHg 52%
    05:00 +23°C° 0 mm 6 mps 757 mmHg 58%
    06:00 +24°C° 0 mm 6 mps 757 mmHg 57%
    07:00 +26°C° 0 mm 7 mps 757 mmHg 56%
    08:00 +27°C° 0 mm 7 mps 758 mmHg 55%
    09:00 +28°C° 0 mm 8 mps 758 mmHg 50%
    10:00 +31°C° 0 mm 8 mps 758 mmHg 45%
    11:00 +32°C° 0 mm 9 mps 758 mmHg 40%
    12:00 +32°C° 0 mm 9 mps 758 mmHg 39%
    13:00 +32°C° 0 mm 9 mps 758 mmHg 38%
    14:00 +33°C° 0 mm 10 mps 758 mmHg 37%
    15:00 +32°C° 0 mm 9 mps 758 mmHg 37%
    16:00 +32°C° 0 mm 9 mps 757 mmHg 37%
    17:00 +31°C° 0 mm 9 mps 757 mmHg 37%
    18:00 +29°C° 0 mm 7 mps 757 mmHg 40%
    19:00 +28°C° 0 mm 6 mps 757 mmHg 43%
    20:00 +26°C° 0 mm 4 mps 757 mmHg 46%
    21:00 +26°C° 0 mm 4 mps 758 mmHg 49%
    22:00 +25°C° 0 mm 4 mps 758 mmHg 51%
    23:00 +25°C° 0 mm 4 mps 758 mmHg 54%

    31 August, Saturday

    Time Temperature Precipitation Wind Pressure Humidity
    00:00 +25°C° 0 mm 4 mps 758 mmHg 55%
    01:00 +23°C° 0 mm 5 mps 758 mmHg 57%
    02:00 +23°C° 0 mm 5 mps 758 mmHg 59%
    03:00 +23°C° 0 mm 6 mps 758 mmHg 61%
    04:00 +23°C° 0 mm 6 mps 758 mmHg 62%
    05:00 +22°C° 0 mm 7 mps 758 mmHg 64%
    06:00 +23°C° 0 mm 7 mps 758 mmHg 61%
    07:00 +24°C° 0 mm 8 mps 758 mmHg 57%
    08:00 +26°C° 0 mm 9 mps 758 mmHg 54%
    09:00 +27°C° 0 mm 9 mps 758 mmHg 49%
    10:00 +28°C° 0 mm 10 mps 758 mmHg 44%
    11:00 +29°C° 0 mm 10 mps 759 mmHg 40%
    12:00 +29°C° 0 mm 10 mps 759 mmHg 38%
    13:00 +31°C° 0 mm 10 mps 758 mmHg 37%
    14:00 +31°C° 0 mm 10 mps 758 mmHg 36%
    15:00 +29°C° 0 mm 10 mps 758 mmHg 37%
    16:00 +29°C° 0 mm 9 mps 758 mmHg 38%
    17:00 +28°C° 0 mm 9 mps 758 mmHg 39%
    18:00 +27°C° 0 mm 7 mps 758 mmHg 44%
    19:00 +26°C° 0 mm 6 mps 758 mmHg 49%
    20:00 +23°C° 0 mm 5 mps 758 mmHg 53%
    21:00 +23°C° 0 mm 5 mps 758 mmHg 54%
    22:00 +23°C° 0 mm 5 mps 758 mmHg 55%
    23:00 +22°C° 0 mm 5 mps 758 mmHg 56%
    Show more